[[{"header":{"parameterUnit":"m.s-1","parameterCategory":1,"la1":30.2991,"la2":30.254,"lo1":-89.0895,"lo2":-89.0444,"dy":0.0017,"dx":0.0017,"nx":28,"ny":28,"refTime":"2023-03-30T21:00:00:Z","depth":0,"parameterNumber":2,"parameterNumberName":"U-component_of_WINDS"},"data":[0,0,0,0,0,0,0,0,0,0,0,0,0,0,0,0,0,0,0,0,0,0,0,0,0,0,0,0,0,0,0,0,0,0,0,0,0,0,0,0,0,0,0,0,0,0,0,0,0,0,0,0,0,0,0,0,0,0,-3.3967,-3.3969,0,-3.4113,-3.4115,-3.4117,-3.4156,-3.4155,-3.4154,-3.4154,-3.4302,-3.4307,-3.4311,0,0,0,0,0,0,0,0,0,0,0,0,0,-3.3723,-3.3727,-3.3967,-3.3969,-3.3971,-3.4113,-3.4115,-3.4117,-3.4156,-3.4155,-3.4154,-3.4153,-3.4301,-3.4306,-3.4312,0,0,0,0,0,0,0,0,0,0,0,0,0,-3.3845,-3.3729,-3.3967,-3.4008,-3.4013,-3.4113,-3.4115,-3.4118,-3.4156,-3.4155,-3.4154,-3.4153,-3.4299,-3.4306,-3.4313,-3.4382,0,0,-3.4334,-3.4337,0,0,0,0,0,0,0,0,-3.3838,-3.3854,-3.4,-3.4005,-3.4011,-3.4115,-3.4083,-3.4206,-3.4157,-3.4102,-3.4154,-3.4152,-3.4241,-3.4253,-3.4283,-3.4389,-3.4395,-3.4335,-3.4339,-3.4342,-3.4344,0,0,0,0,0,0,0,-3.3829,-3.3848,-3.4025,-3.4002,-3.4009,-3.4019,-3.4035,-3.4107,-3.4177,-3.4107,-3.411,-3.4127,-3.4244,-3.4276,-3.4287,-3.4398,-3.4335,-3.4341,-3.4346,-3.4348,-3.4569,-3.457,0,0,0,0,0,0,-3.3814,-3.384,-3.402,-3.4029,-3.392,-3.4024,-3.4042,-3.4083,-3.4176,-3.4189,-3.4127,-3.4128,-3.4264,-3.4278,-3.4292,-3.4379,-3.4342,-3.4349,-3.4353,-3.4567,-3.4569,-3.4571,0,0,0,0,0,0,-3.3809,-3.383,-3.4014,-3.3936,-3.396,-3.403,-3.4075,-3.4087,-3.4119,-3.4192,-3.4204,-3.4147,-3.4264,-3.4282,-3.436,-3.4385,-3.4352,-3.4359,-3.4565,-3.4568,-3.457,-3.4554,0,0,0,0,0,0,-3.3801,-3.3828,-3.3854,-3.3936,-3.3964,-3.4079,-3.4077,-3.409,-3.4131,-3.4133,-3.4214,-3.4226,-3.4264,-3.4349,-3.4367,-3.4394,-3.4364,-3.4563,-3.4566,-3.4569,-3.4552,-3.4555,-3.4558,0,0,0,0,0,-3.3793,-3.3844,-3.3855,-3.3877,-3.3999,-3.4081,-3.4097,-3.414,-3.4133,-3.416,-3.4208,-3.4224,-3.438,-3.4356,-3.4377,-3.4407,-3.4562,-3.4566,-3.4569,-3.4551,-3.4555,-3.4558,0,0,0,0,0,0,-3.3762,-3.3855,-3.3869,-3.3948,-3.4006,-3.4087,-3.4123,-3.4142,-3.4203,-3.4202,-3.4253,-3.4271,-3.4345,-3.4384,-3.4356,-3.4479,-3.4471,-3.4479,-3.445,-3.4454,-3.4457,-3.4445,-3.437,0,0,0,0,0,-3.3765,-3.3823,-3.3901,-3.3964,-3.3992,-3.4053,-3.409,-3.4118,-3.418,-3.4205,-3.4258,-3.4317,-3.438,-3.442,-3.4481,-3.4559,-3.4577,-3.459,-3.4593,-3.4595,-3.46,-3.4644,-3.465,-3.4583,-3.4583,-3.4583,0,0,-3.377,-3.3829,-3.3862,-3.3959,-3.4007,-3.4067,-3.4073,-3.4135,-3.418,-3.4214,-3.429,-3.4332,-3.4402,-3.4479,-3.4516,-3.4514,-3.4623,-3.4599,-3.46,-3.4605,-3.4648,-3.4655,-3.466,-3.4585,-3.4585,-3.4584,0,0,-3.3811,-3.3861,-3.3918,-3.3967,-3.404,-3.408,-3.4094,-3.4173,-3.4202,-3.4279,-3.4307,-3.4361,-3.4467,-3.4516,-3.4555,-3.4616,-3.4632,-3.4635,-3.4648,-3.469,-3.4695,-3.47,-3.4721,-3.4728,-3.464,-3.464,-3.464,0,-3.3808,-3.3898,-3.3945,-3.4006,-3.4048,-3.4083,-3.4142,-3.4187,-3.4276,-3.4304,-3.4301,-3.4436,-3.4486,-3.4576,-3.4591,-3.4621,-3.4638,-3.4624,-3.4691,-3.4696,-3.4702,-3.4722,-3.473,-3.464,-3.464,-3.464,-3.464,0,-3.3891,-3.3954,-3.3991,-3.4077,-3.4124,-3.4183,-3.4239,-3.428,-3.4305,-3.4346,-3.4425,-3.4486,-3.4561,-3.4585,-3.461,-3.4679,-3.4675,-3.4681,-3.4673,-3.4707,-3.4727,-3.4735,-3.4639,-3.4639,-3.464,-3.464,0,0,-3.3913,-3.4026,-3.4039,-3.4078,-3.4163,-3.4212,-3.4274,-3.4347,-3.4381,-3.4443,-3.4495,-3.4586,-3.4592,-3.4636,-3.4668,-3.4705,-3.4748,-3.4707,-3.4709,-3.4711,-3.4827,-3.4821,-3.4829,-3.4761,-3.4763,-3.4764,-3.4821,0,-3.3963,-3.4074,-3.4118,-3.4208,-3.4266,-3.4302,-3.4355,-3.4413,-3.4454,-3.4509,-3.4554,-3.4617,-3.4621,-3.4648,-3.4687,-3.4735,-3.4772,-3.4732,-3.481,-3.4812,-3.4789,-3.484,-3.4833,-3.4883,-3.4829,-3.4831,-3.4832,0,-3.4035,-3.4097,-3.4192,-3.427,-3.4296,-3.4344,-3.4415,-3.4468,-3.4535,-3.4562,-3.4612,-3.4641,-3.4707,-3.4698,-3.4789,-3.4761,-3.4796,-3.4825,-3.4828,-3.4835,-3.4822,-3.4846,-3.49,-3.4907,-3.4845,-3.4843,-3.4843,0,-3.4039,-3.4147,-3.4219,-3.4252,-3.4345,-3.4377,-3.4418,-3.4483,-3.4525,-3.4588,-3.4615,-3.4685,-3.4723,-3.4776,-3.4824,-3.4813,-3.4911,-3.4906,-3.4935,-3.4933,-3.4952,-3.4949,-3.501,-3.4978,-3.4978,-3.4977,-3.4977,0,-3.4089,-3.4145,-3.4222,-3.4265,-3.433,-3.4382,-3.4445,-3.4488,-3.4546,-3.4599,-3.4635,-3.4683,-3.4744,-3.4801,-3.4839,-3.4909,-3.4926,-3.495,-3.4959,-3.4945,-3.4942,-3.4967,-3.4964,-3.4979,-3.4979,-3.4979,-3.4978,0,-3.4104,-3.4158,-3.4237,-3.432,-3.4342,-3.4386,-3.4456,-3.45,-3.4543,-3.4609,-3.4628,-3.4695,-3.4764,-3.4818,-3.4907,-3.4933,-3.5006,-3.5017,-3.4983,-3.4987,-3.5013,-3.5009,-3.509,-3.5103,-3.5063,-3.5064,-3.5064,0,-3.413,-3.4175,-3.4262,-3.43,-3.434,-3.4401,-3.4444,-3.4497,-3.454,-3.4621,-3.4655,-3.4726,-3.4786,-3.4894,-3.4951,-3.502,-3.5032,-3.5056,-3.5042,-3.5027,-3.503,-3.5026,-3.5031,-3.5056,-3.5056,-3.5057,-3.5057,0,-3.4172,-3.4196,-3.4257,-3.4327,-3.4377,-3.4435,-3.4493,-3.4523,-3.4587,-3.4634,-3.4704,-3.4751,-3.4843,-3.4913,-3.4988,-3.503,-3.5054,-3.5061,-3.5071,-3.5057,-3.5034,-3.5045,-3.4986,-3.5058,-3.5058,-3.5058,-3.5058,-3.5058,-3.4193,-3.4234,-3.4302,-3.4368,-3.4418,-3.4472,-3.4517,-3.4566,-3.4626,-3.4705,-3.4734,-3.4806,-3.4873,-3.4977,-3.502,-3.5078,-3.5079,-3.5094,-3.5097,-3.5099,-3.5097,-3.5027,-3.5092,-3.5092,-3.5092,-3.5092,-3.5092,0,-3.4234,-3.428,-3.4341,-3.4422,-3.4474,-3.4493,-3.456,-3.4602,-3.4665,-3.4726,-3.4784,-3.4866,-3.4935,-3.4998,-3.507,-3.5104,-3.5117,-3.5121,-3.5118,-3.5128,-3.5093,-3.5076,-3.511,-3.511,-3.511,-3.511,-3.511,-3.511,-3.4262,-3.4332,-3.4365,-3.4461,-3.4507,-3.4579,-3.4615,-3.4665,-3.4714,-3.4803,-3.4861,-3.4902,-3.4964,-3.5041,-3.5105,-3.5122,-3.5146,-3.5147,-3.5167,-3.5133,-3.513,-3.5127,-3.5112,-3.5153,-3.5153,-3.5197,-3.5197,-3.5197]},{"header":{"parameterUnit":"m.s-1","parameterCategory":1,"la1":30.2991,"la2":30.254,"lo1":-89.0895,"lo2":-89.0444,"dy":0.0017,"dx":0.0017,"nx":28,"ny":28,"refTime":"2023-03-30T21:00:00:Z","depth":0,"parameterNumber":3,"parameterNumberName":"V-component_of_WINDS"},"data":[0,0,0,0,0,0,0,0,0,0,0,0,0,0,0,0,0,0,0,0,0,0,0,0,0,0,0,0,0,0,0,0,0,0,0,0,0,0,0,0,0,0,0,0,0,0,0,0,0,0,0,0,0,0,0,0,0,0,3.7937,3.7938,0,3.8062,3.8064,3.8065,3.8082,3.8081,3.808,3.8078,3.8203,3.8207,3.8212,0,0,0,0,0,0,0,0,0,0,0,0,0,3.7711,3.7715,3.7937,3.7938,3.794,3.8062,3.8064,3.8065,3.8082,3.8081,3.8079,3.8078,3.8202,3.8207,3.8212,0,0,0,0,0,0,0,0,0,0,0,0,0,3.7819,3.7716,3.7937,3.7963,3.7967,3.8062,3.8064,3.8066,3.8082,3.8081,3.8079,3.8077,3.82,3.8206,3.8213,3.8289,0,0,3.8233,3.8236,0,0,0,0,0,0,0,0,3.7813,3.7828,3.7958,3.7962,3.7966,3.8055,3.803,3.8141,3.8083,3.8038,3.8078,3.8076,3.8155,3.8165,3.8192,3.8295,3.83,3.8234,3.8238,3.8241,3.8242,0,0,0,0,0,0,0,3.7806,3.7822,3.7986,3.796,3.7965,3.7968,3.7982,3.8051,3.8105,3.8042,3.8044,3.8058,3.8157,3.8186,3.8195,3.8302,3.8234,3.8239,3.8244,3.8246,3.8475,3.8477,0,0,0,0,0,0,3.7794,3.7816,3.7982,3.799,3.7884,3.7974,3.7989,3.8028,3.8104,3.8114,3.806,3.8059,3.8176,3.8188,3.82,3.8295,3.8241,3.8247,3.8251,3.8473,3.8475,3.8477,0,0,0,0,0,0,3.7789,3.7808,3.7977,3.7904,3.7925,3.798,3.8023,3.8031,3.8061,3.8118,3.8127,3.808,3.8175,3.8191,3.8267,3.83,3.825,3.8256,3.847,3.8473,3.8476,3.8486,0,0,0,0,0,0,3.7782,3.7806,3.7836,3.7904,3.7929,3.8043,3.8025,3.8035,3.8072,3.8072,3.8139,3.8148,3.8174,3.8257,3.8274,3.8308,3.8261,3.8467,3.8472,3.8475,3.8483,3.8489,3.8494,0,0,0,0,0,3.7774,3.7833,3.7838,3.7858,3.7968,3.8045,3.8059,3.8089,3.8075,3.8105,3.8142,3.8146,3.8293,3.8265,3.8284,3.832,3.8466,3.847,3.8475,3.848,3.8487,3.8494,0,0,0,0,0,0,3.7765,3.7842,3.7848,3.7931,3.7982,3.8048,3.8087,3.8096,3.8151,3.8148,3.8182,3.8197,3.8273,3.8304,3.8271,3.8399,3.8378,3.8387,3.8376,3.8383,3.8389,3.8379,3.8266,0,0,0,0,0,3.7773,3.7831,3.7894,3.7961,3.7986,3.8032,3.8067,3.8086,3.8139,3.816,3.8203,3.8254,3.8312,3.8349,3.8405,3.8487,3.8502,3.8522,3.8527,3.8532,3.8539,3.8586,3.8595,3.8493,3.8493,3.8493,0,0,3.779,3.7839,3.7873,3.796,3.8002,3.806,3.805,3.8111,3.8155,3.8169,3.8245,3.8278,3.8337,3.8417,3.8455,3.8446,3.8571,3.8538,3.8541,3.8546,3.8592,3.8601,3.861,3.8496,3.8496,3.8495,0,0,3.785,3.7893,3.7954,3.7996,3.806,3.809,3.8105,3.8171,3.8194,3.8271,3.8283,3.8335,3.8434,3.8476,3.851,3.8588,3.8594,3.8606,3.8635,3.868,3.8688,3.8696,3.8725,3.8735,3.8612,3.8612,3.8612,0,3.7862,3.7951,3.7984,3.8046,3.8084,3.8102,3.8164,3.8203,3.8281,3.8307,3.8297,3.8422,3.8463,3.8554,3.8574,3.86,3.8618,3.8598,3.8685,3.8693,3.87,3.8728,3.8738,3.8613,3.8613,3.8613,3.8613,0,3.7964,3.8026,3.8067,3.8145,3.8188,3.8249,3.8291,3.833,3.8346,3.8377,3.8456,3.8506,3.8574,3.8596,3.8611,3.869,3.8683,3.8678,3.8658,3.871,3.8737,3.8748,3.8615,3.8615,3.8614,3.8614,0,0,3.8022,3.8117,3.8132,3.8168,3.824,3.8288,3.8351,3.8419,3.8452,3.8506,3.856,3.8644,3.8641,3.868,3.8699,3.8739,3.88,3.873,3.8732,3.8742,3.8891,3.8895,3.8906,3.8804,3.8806,3.8808,3.8886,0,3.8091,3.8205,3.8236,3.8332,3.839,3.8408,3.8463,3.8513,3.8544,3.8597,3.8632,3.8691,3.8682,3.8706,3.8746,3.8784,3.883,3.8778,3.8854,3.8857,3.884,3.892,3.8924,3.8996,3.8897,3.8899,3.89,0,3.8187,3.8245,3.8347,3.8413,3.8439,3.8487,3.8553,3.8604,3.8661,3.8681,3.8726,3.8742,3.8808,3.8785,3.8877,3.8841,3.8874,3.8897,3.89,3.8909,3.8882,3.8932,3.9019,3.903,3.8917,3.8915,3.8914,0,3.822,3.8323,3.8398,3.8428,3.8507,3.8541,3.8576,3.8631,3.8671,3.8727,3.8753,3.8816,3.8851,3.8899,3.8932,3.8912,3.9022,3.9001,3.904,3.904,3.9063,3.9061,3.9157,3.9083,3.9083,3.9082,3.9082,0,3.8295,3.8357,3.8414,3.846,3.8531,3.8566,3.8634,3.8669,3.8719,3.8772,3.8791,3.884,3.8881,3.8936,3.8962,3.9035,3.905,3.9068,3.9074,3.9067,3.9065,3.9089,3.9085,3.9085,3.9085,3.9084,3.9084,0,3.8344,3.8385,3.8468,3.8537,3.8556,3.8604,3.8663,3.8708,3.8741,3.8808,3.8826,3.8877,3.8942,3.898,3.9062,3.908,3.9161,3.9165,3.9142,3.9145,3.9183,3.918,3.9299,3.9317,3.923,3.9231,3.9231,0,3.8389,3.8438,3.8513,3.855,3.8586,3.8645,3.8686,3.8723,3.8765,3.8835,3.8872,3.8939,3.8994,3.9098,3.9142,3.9205,3.9211,3.9249,3.9221,3.9212,3.9213,3.921,3.9216,3.9254,3.9254,3.9255,3.9255,0,3.8466,3.8484,3.8543,3.8609,3.8658,3.8711,3.8764,3.8793,3.8839,3.8885,3.8953,3.8997,3.9082,3.9148,3.9215,3.925,3.9261,3.9264,3.9277,3.927,3.9256,3.9265,3.9156,3.9261,3.9261,3.926,3.926,3.926,3.8516,3.856,3.862,3.8685,3.8729,3.8779,3.8826,3.8865,3.8923,3.8996,3.9014,3.9086,3.9143,3.9235,3.9271,3.9328,3.9321,3.9339,3.9344,3.9348,3.935,3.9246,3.934,3.934,3.934,3.9339,3.9339,0,3.8594,3.8634,3.8694,3.8768,3.882,3.8826,3.8886,3.8928,3.8992,3.9045,3.91,3.9179,3.9244,3.9293,3.936,3.9395,3.9402,3.9412,3.941,3.9418,3.9351,3.9334,3.9405,3.9405,3.9405,3.9405,3.9405,3.9405,3.8641,3.8718,3.8743,3.8842,3.8881,3.8953,3.8986,3.9032,3.9075,3.9163,3.9218,3.925,3.9302,3.9373,3.9433,3.9446,3.947,3.9479,3.9492,3.9429,3.9422,3.9416,3.94,3.9483,3.9484,3.9555,3.9555,3.9556]}]]